FW8143 Weather Reports


time (UTC)temp
F
wind
direction
speed
knots
gust
knots
rain 1hr
in
rain 24hr
in
rain mn
in
humidity
%
barometer
mb
20260901080938 61 236 5.2 13.0 0.00 0.13 0.00 75 1032.3
20260901080649 60 170 3.5 8.7 0.00 0.13 0.00 70 1031.6
20260901075926 60 139 2.6 10.4 0.00 0.13 0.00 71 1031.5
20260901075419 60 134 1.7 10.4 0.00 0.13 0.00 72 1031.5
20260901074912 60 90 2.6 8.7 0.00 0.13 0.00 71 1031.5
20260901074406 60 109 2.6 9.6 0.00 0.13 0.00 72 1031.6
20260901073900 60 120 3.5 9.6 0.00 0.13 0.00 73 1031.7
20260901073354 59 103 3.5 11.3 0.00 0.13 0.00 73 1031.7
20260901072848 59 144 3.5 11.3 0.00 0.13 0.00 74 1031.8
20260901072342 59 85 2.6 7.8 0.00 0.13 0.00 74 1032.0
20260901071835 59 82 1.7 7.0 0.00 0.13 0.00 75 1032.0
20260901071330 59 115 2.6 12.2 0.00 0.13 0.00 76 1031.8
20260901070824 58 94 3.5 12.2 0.00 0.13 0.00 76 1031.8
20260901070319 58 88 2.6 7.0 0.00 0.13 0.00 77 1031.7
20260901065821 58 130 3.5 9.6 0.00 0.13 0.00 78 1031.7
20260901065320 57 66 3.5 9.6 0.00 0.13 0.00 79 1031.7
20260901064822 57 139 3.5 9.6 0.00 0.13 0.00 80 1031.8
20260901064320 57 135 2.6 8.7 0.00 0.13 0.00 82 1031.8
20260901064127 56 140 2.6 9.6 0.00 0.13 0.00 83 1031.8
20260901064021 56 196 2.6 11.3 0.00 0.13 0.00 84 1031.8
20260901063037 56 181 2.6 11.3 0.00 0.13 0.00 86 1031.7
20260901062318 56 205 2.6 9.6 0.00 0.13 0.00 87 1031.8
20260901061818 56 291 0.9 8.7 0.00 0.13 0.00 88 1031.8
20260901061756 56 57 0.9 8.7 0.00 0.13 0.00 88 1031.8